This is the latest recevied weather packets stored in our database for station/object K3CHZ. If no packets are shown the sender has not sent any weather packets the latest 10 day(s).
| Time | Temp. | Humidity | Pressure | Rain* | Wind** | Luminosity | Snow |
|---|---|---|---|---|---|---|---|
| 1777591938 | 13.89° C | 57% | 1011.1 hPa | 0 mm | - | - | - |
| 1777591638 | 13.89° C | 56% | 1011 hPa | 0 mm | - | - | - |
| 1777591339 | 13.89° C | 54% | 1010.9 hPa | 0 mm | - | - | - |
| 1777591040 | 14.44° C | 55% | 1010.9 hPa | 0 mm | - | - | - |
| 1777590740 | 14.44° C | 54% | 1010.8 hPa | 0 mm | - | - | - |
| 1777590440 | 14.44° C | 55% | 1010.7 hPa | 0 mm | - | - | - |
| 1777590140 | 15° C | 55% | 1010.5 hPa | 0 mm | - | - | - |
| 1777589841 | 15° C | 55% | 1010.4 hPa | 0 mm | - | - | - |
| 1777589540 | 15° C | 55% | 1010.3 hPa | 0 mm | - | - | - |
| 1777589240 | 15.56° C | 54% | 1010.2 hPa | 0 mm | - | - | - |
| 1777588940 | 15.56° C | 53% | 1010.1 hPa | 0 mm | - | - | - |
| 1777588640 | 15.56° C | 54% | 1010.1 hPa | 0 mm | - | - | - |
| 1777588340 | 15.56° C | 54% | 1009.8 hPa | 0 mm | - | - | - |
| 1777588040 | 16.11° C | 53% | 1009.8 hPa | 0 mm | - | - | - |
| 1777587740 | 15.56° C | 55% | 1009.7 hPa | 0 mm | - | - | - |
| 1777587440 | 15.56° C | 54% | 1009.8 hPa | 0 mm | - | - | - |
| 1777587139 | 16.11° C | 54% | 1009.8 hPa | 0 mm | - | - | - |
| 1777586840 | 16.11° C | 54% | 1009.7 hPa | 0 mm | - | - | - |
| 1777586539 | 16.11° C | 53% | 1009.8 hPa | 0 mm | - | - | - |
| 1777586240 | 16.11° C | 54% | 1009.6 hPa | 0 mm | - | - | - |
| 1777585939 | 16.11° C | 53% | 1009.5 hPa | 0 mm | - | - | - |
| 1777585641 | 16.11° C | 52% | 1009.5 hPa | 0 mm | - | - | - |
| 1777585340 | 16.11° C | 52% | 1009.5 hPa | 0 mm | - | - | - |
| 1777585041 | 16.11° C | 53% | 1009.3 hPa | 0 mm | - | - | - |
| 1777584740 | 16.67° C | 50% | 1009.3 hPa | 0 mm | - | - | - |
* Rain latest hour (hover to see other rain measurements)
** Current wind speed in m/s (hover to see current wind gust speed)